STARLINK-31307, 59089

Orbit data source: Space-Track

STARLINK-31307, 59089 is a payload satellite owned by SpaceX/Seattle (US) in LEO that was launched on Thu, 29 Feb 2024 UTC via an FALCON 9 launch vehicle from the Air Force Eastern Test Range (AFETR). Payload-class satellites include a variety of spacecraft equipped with specific instruments for various scientific and technological missions. These include communications satellites like Starlink; space stations such as the ISS; scientific satellites like the Hubble; Earth observation satellites from companies like Planet Labs, Umbra, and HawkEye 360; GPS; miniature CubeSats for education and research; and military/defense satellites.

Loading next visibility...
Identifier
59089, 2024-041R
Orbit
LEO
Country
Flag of USUS
Related business
Manufacturer
SpaceX/Seattle
Mission
Operational Commercial Communications
Bus & Motor
STARLINK V2M, Unknown motor
Mass
730 kg wet, ~700 kg dry
Launch date (UTC)
2024-02-29 (2 years ago)
Launch vehicle
FALCON 9
Launch site
Air Force Eastern Test Range (AFETR)
Object type
Payload
Rocket body
Debris
Shape & HBR
Box + 2 Pan, 17.7 m
Radar Cross Section
33.884 m², Large (>1 m²)

Expand to show TLE details & history
Last TLE update: 2 days ago

TLE from 2 days ago
0 STARLINK-31307
1 59089U 24041R   26171.15060214  .00002776  00000-0  11038-3 0  9996
2 59089  43.0022  91.8883 0000983 268.7673  91.3066 15.27577289129998
Epoch: 2026-06-20T03:36Z
TLE epoch observation values (Epoch: 2026-06-20T03:36:52.024Z)
Latitude
-0.00004°
Longitude
129.30214°
Altitude
482.848 km
Speed
7.626 km/s
True Right ascension
06h 07m 33s
True Declination
0° 00' 00"
Sunlit
Object was in daylight at epoch
Visualization orbit readout
Latitude
Unknown
Longitude
Unknown
Altitude
Unknown
Speed
Unknown
Apparent Right ascension
Unknown
Apparent Declination
Unknown
Sunlit
N/A
Visualization observer readout
Local Sidereal Time
21:30:43
Azimuth
Unknown
Elevation
Unknown
Doppler factor
Unknown
Orbital elements
Apogee altitude
485.677 km
Perigee altitude
484.327 km
Semi-major axis
6,863.139 km
Eccentricity
0.0001
Inclination
43.0022°
RAAN
91.8883°
Arg. of periapsis
268.7673°
True anomaly
91.31786°
Mean anomaly
91.3066°
Eccentric anomaly
91.31223°
Mean motion
3.81732 °/min
Orbital period
94.31 mins
BSTAR
0.00011038
Loading maneuver chart data...
Computing Atmospheric mass density...
Loading historical data...
Loading historical data...
Loading historical data...
Loading historical data...
Loading historical data...
Loading historical data...
Loading historical data...

Documentation

Showing up to 5 results
|